COSMOS 1275 DEB

Satellite information

Favourite Embed

Satellite Type and Status

DEBRISIN ORBIT

Key statistics

Satellite COSMOS 1275 DEB at a glance.

Uptime

16103

Days in orbit

Revolutions

≈ 14.3

Per day

Orbit

LEO

Low Earth Orbit

Inclination

82.9

Latest

Satellite identification and parameters

Extended collection of information and parameters for COSMOS 1275 DEB.

Object identification

Identified? True

Debris? True

Object name: COSMOS 1275 DEB

International designator: 1981-053CP

Object number (NORAD): 12746

Object ID (CCSDS): 12746

Country: COMMONWEALTH OF INDEPENDENT STATES (CIS)

Current information (Y/N): Y

RCS size: SMALL

Orbital parameters

Period: 100.875 minutes

Inclination: 82.9365 deg

SMA: 7178.2 km

Apoapsis: 825.234 km

Periapsis: 774.896 km

RAAN: 74.1824 deg

Eccentricy: 0.0035063

Argument of periapsis: 243.2024 deg

Mean anomaly: 116.5573 deg

Mean motion: 14.27510883 rev/day

Mean motion (dot): 0.0000257 rev/day2

B* drag term: 0.0010328 1/REarth

Two-line elements (TLE)

Creation date: July 5, 2025, 5:45 p.m.

Reference frame: TEME

Reference center: EARTH

Epoch: July 5, 2025, 3:07 p.m. UTC

TLE line 0: 0 COSMOS 1275 DEB

TLE line 1: 1 12746U 81053CP 25186.63039877 .00002570 00000-0 10328-2 0 9992

TLE line 2: 2 12746 82.9365 74.1824 0035063 243.2024 116.5573 14.27510883237565

Live tracking on map

Real-time ground track for satellite COSMOS 1275 DEB.

In-orbit conjunctions

A list of the most updated potential collisions computed for object COSMOS 1275 DEB.

Target Orbit TCA Probability of collision Miss distance Type
THOR ABLESTAR DEB LEO 2025-06-28 23:57:16 0.000172802 198.0 (m) DEBRIS
CZ-6A DEB LEO 2024-11-29 08:23:42 0.0001384241 289.0 (m) DEBRIS
NOAA 16 DEB SSO 2024-11-09 01:04:17 0.0008767932 223.0 (m) DEBRIS
CZ-6A DEB LEO 2024-09-25 07:11:20 0.002192662 59.0 (m) DEBRIS

Associated space launch

Navigation satellite providing location information for the Tsiklon-B navigation system

COSMOS 1275 DEB was lifted into orbit during the mission ‘Kosmos-3M | Parus 27’, on board a Kosmos-3M space rocket.

The launch took place on June 4, 1981, 3:41 p.m. from 132/2.

For more information about the launch, click the button.

Launch to space Kosmos-3M | Parus 27
Kosmos-3M | Parus 27

Agency: N/A

Status: Launch Successful

Launch date: June 4, 1981, 3:41 p.m. UTC

Rocket: Kosmos-3M

Launch pad: 132/2

Location: Plesetsk Cosmodrome, Russian Federation

...

Latest news about this satellite

There are no fresh news available about this satellite. Check back as we update our databases every day.


Newsletter sign-up

Weekly statistics, charts and insights to help you stay on top of the space industry.